リニア彗星

P/2010 A2 ( LINEAR )

English version
Home page
Updated on October 3, 2010

---------------------------------------------------------------------

・ プロフィール

発見日 2010年1月6日
発見光度 19.9等
発見者 Lincoln Laboratory Near-Earth Asteroid Research project

・ 写真集

・ 軌道要素

Epoch 2009 Nov. 25.0 TT = JDT 2455160.5
T 2009 Dec. 4.67084 TT                                  MPC
q   2.0058793            (2000.0)            P               Q
n   0.28430088     Peri.  133.22104     -0.06300038     -0.99629454
a   2.2906070      Node   320.27856     +0.88705057     -0.02901437
e   0.1243023      Incl.    5.25682     +0.45735353     -0.08096519
P   3.47

・ 光度変化

        m1 = 2.5 + 5 logΔ + 50 log r

        核光度:
        H = 21.3  G = 0.15

---------------------------------------------------------------------

軌道要素はM.P.E.C. 2010-F16に掲載されたものです。
光度グラフはComet for Windowsで作成したものです。

---------------------------------------------------------------------

Copyright(C) Seiichi Yoshida (comet@aerith.net). All rights reserved.